Location: Cassano d�Adda
(45.5333°N, 9.5167°E)
Time: 21:03:12
(UTC+00:00)

Meteor 1-27 Rocket - Pass Details

Date: 08 December 2019
Orbit: 831 x 909 km, 81.3° (Epoch: 18 January)

Event Time Altitude Azimuth Distance (km) Brightness Sun altitude
Rises 16:23:30 0° 168° (SSE) 3,425 7.0 -7.8°
Reaches altitude 10° 16:26:00 10° 161° (SSE) 2,505 6.2 -8.2°
Maximum altitude 16:31:20 43° 92° (E) 1,226 4.2 -9.0°
Drops below altitude 10° 16:36:48 10° 23° (NNE) 2,571 5.8 -9.9°
Sets 16:39:23 0° 17° (NNE) 3,525 6.6 -10.3°
